Flag for Switzerland Weather past 2 weeks in Aarau, Aargau, Switzerland

Now
33 °F

Chilly.


Feels Like: 33 °F
Forecast: 28 / 38 °F
Wind: 1 mph from Southwest

Location: Wynau

Current Time: Dec 26, 2014 at 9:11:14 AM

Latest Report: Dec 26, 2014 at 8:00 AM


Visibility: N/A

Pressure: 30.49 "Hg

Humidity: 94%

Dew point: 32 °F

Location of AarauLocation

Historic Weather in Aarau — Graph

°F

Aarau temperature yesterday

Maximum temperature yesterday: 43 °F (at 3:00 AM)
Minimum temperature yesterday: 36 °F (at 8:00 PM)
Average temperature yesterday: 41 °F

Past Weeks' High & Low Weather Summary

 TemperatureHumidityPressure
High55 °F (Dec 19, 2:00 PM)100% (Dec 12, 7:00 AM)30.63 "Hg (Dec 12, 7:00 AM)
Low24 °F (Dec 24, 8:00 AM)56% (Dec 23, 3:00 PM)29.88 "Hg (Dec 12, 4:00 PM)
Average40 °F87%30.23 "Hg
* Reported Dec 11 7:00 AM — Dec 26 7:00 AM, Aarau, Weather by CustomWeather, © 2014

Note: Actual official high and low records may vary slightly from our data, if they occured in-between our weather recording intervals... More about our weather records

Advertising

Aarau weather history for previous 24 hours

 ConditionsComfort  
Time TempWeatherWind HumidityBarometerVisibility
7:00 AM
Dec 26
33 °FChilly.2 mph96%30.49 "HgN/A
6:00 AM33 °FChilly.2 mph95%30.48 "HgN/A
5:00 AM33 °FChilly.3 mph93%30.48 "HgN/A
4:00 AM34 °FChilly.6 mph94%30.48 "HgN/A
3:00 AM33 °FChilly.3 mph95%30.49 "HgN/A
2:00 AM34 °FChilly.5 mph95%30.48 "HgN/A
1:00 AM34 °FChilly.6 mph92%30.48 "HgN/A
12:00 AM34 °FChilly.2 mph88%30.48 "HgN/A
11:00 PM
Dec 25
36 °FChilly.5 mph81%30.47 "HgN/A
9:00 PM36 °FChilly.2 mph72%30.47 "HgN/A
8:00 PM36 °FChilly.3 mph71%30.45 "HgN/A
7:00 PM39 °FChilly.3 mph60%30.43 "HgN/A
6:00 PM41 °FQuite cool.6 mph58%30.41 "HgN/A
5:00 PM42 °FQuite cool.3 mph61%30.39 "HgN/A
4:00 PM42 °FQuite cool.6 mph62%30.38 "HgN/A
3:00 PM42 °FQuite cool.8 mph60%30.38 "HgN/A
2:00 PM42 °FQuite cool.7 mph63%30.37 "HgN/A
1:00 PM42 °FQuite cool.8 mph67%30.37 "HgN/A
12:00 PM42 °FQuite cool.6 mph75%30.37 "HgN/A
11:00 AM42 °FQuite cool.6 mph79%30.37 "HgN/A
10:00 AM43 °FQuite cool.3 mph85%30.34 "HgN/A
9:00 AM42 °FQuite cool.5 mph81%30.33 "HgN/A
Weather by CustomWeather, © 2014

See weather overviewHow to use our weather pages